User: anonymous   Login
Location: Campestrin
(46.4667°N, 11.7167°E)
Time: 04:20:13
(UTC+00:00)
Language:

Cosmos 2219 Rocket - Orbit

View from above orbital plane
View from above orbital plane
View from above satellite
View from above satellite

Ground track
Ground track

The orbit data is extracted from the following two-line orbital elements,

1 22220U 92076B   21169.52940334 -.00000170  00000-0 -61071-4 0  9990
2 22220  70.9998 220.9650 0013998 213.4359 247.5595 14.16472487477518
Epoch (UTC): 18 June 2021 12:42:20
Eccentricity: 0.0013998
inclination: 70.9998°
perigee height: 827 km
apogee height: 847 km
right ascension of ascending node: 220.9650°
argument of perigee: 213.4359°
revolutions per day: 14.16472487
mean anomaly at epoch: 247.5595°
orbit number at epoch: 47751

The dashed part of the orbit path shows where the satellite is in the earth's shadow,  

DLR